Flag for China Weather past 2 weeks in Shenzhen, Guangdong, China

Now
77 °F

Passing clouds.


Feels Like: 79 °F
Forecast: 71 / 85 °F
Wind: 10 mph from Southwest

Location: Shenzhen Airport

Current Time: Mar 30, 2015 at 5:31:45 PM

Latest Report: Mar 30, 2015 at 5:00 PM


Visibility: N/A

Pressure: 29.92 "Hg

Humidity: 79%

Dew point: 70 °F

Location of ShenzhenLocation

Historic Weather in Shenzhen — Graph

°F

Shenzhen temperature yesterday

Maximum temperature yesterday: 77 °F (at 1:00 PM)
Minimum temperature yesterday: 68 °F (at 2:00 AM)
Average temperature yesterday: 72 °F

Past Weeks' High & Low Weather Summary

 TemperatureHumidityPressure
High82 °F (Mar 18, 10:00 AM)94% (Mar 19, 1:00 AM)30.30 "Hg (Mar 19, 1:00 AM)
Low63 °F (Mar 25, 11:00 PM)47% (Mar 23, 12:00 PM)29.80 "Hg (Mar 17, 4:00 PM)
Average72 °F78%30.03 "Hg
* Reported Mar 15 4:00 PM — Mar 30 4:00 PM, Shenzhen, Weather by CustomWeather, © 2015

Note: Actual official high and low records may vary slightly from our data, if they occured in-between our weather recording intervals... More about our weather records

Advertising

Shenzhen weather history for previous 24 hours

 ConditionsComfort  
Time TempWeatherWind HumidityBarometerVisibility
4:00 PM
Mon, Mar 30
79 °FSunny.10 mph74%29.89 "Hg10 mi
3:00 PM79 °FSunny.8 mph79%29.92 "Hg10 mi
2:00 PM77 °FSunny.8 mph79%29.95 "Hg10 mi
1:00 PM75 °FSunny.6 mph83%29.98 "Hg10 mi
12:00 PM77 °FSunny.6 mph74%30.01 "Hg10 mi
11:00 AM77 °FClear.6 mph74%30.01 "Hg5 mi
10:00 AM75 °FPartly sunny.3 mph78%30.01 "Hg4 mi
9:00 AM75 °FPartly sunny.3 mph74%30.01 "Hg4 mi
8:00 AM73 °FFog.3 mph78%29.98 "Hg3 mi
7:00 AM72 °FFog.1 mph83%29.98 "Hg3 mi
6:00 AM70 °FPassing clouds.6 mph88%29.95 "Hg4 mi
5:00 AM72 °FPassing clouds.3 mph83%29.95 "Hg4 mi
4:00 AM72 °FPassing clouds.3 mph83%29.95 "Hg4 mi
3:00 AM70 °FPassing clouds.3 mph83%29.95 "Hg4 mi
2:00 AM72 °FPassing clouds.8 mph78%29.95 "Hg4 mi
1:00 AM72 °FPassing clouds.8 mph78%29.98 "HgN/A
12:00 AM72 °FPassing clouds.6 mph78%30.01 "HgN/A
11:00 PM
Sun, Mar 29
72 °FPassing clouds.6 mph73%29.98 "HgN/A
10:00 PM72 °FClear.6 mph78%29.98 "Hg10 mi
9:00 PM72 °FClear.8 mph78%29.98 "Hg10 mi
8:00 PM73 °FClear.10 mph78%29.95 "Hg10 mi
7:00 PM73 °FClear.10 mph83%29.95 "Hg5 mi
6:00 PM73 °FSunny.8 mph83%29.92 "Hg10 mi
5:00 PM75 °FSunny.8 mph74%29.92 "Hg10 mi
Weather by CustomWeather, © 2015

See weather overviewHow to use our weather pages